Regional Weather Roundup
Issued by NWS

Home | Current Version | Previous Version | Graphics & Text | Print | Product List | Glossary On
Versions: 1 2 3 4 5 6 7 8 9 10 11 12 13 14 15 16 17 18 19 20 21 22 23 24 25 26 27 28 29 30 31 32 33 34 35 36 37 38 39 40 41 42 43 44 45 46 47 48 49 50
000
ASUS44 KMEG 011600
RWRTN
TENNESSEE HOURLY STATE WEATHER ROUNDUP
NATIONAL WEATHER SERVICE MEMPHIS TN
1100 AM CDT WED JUL 01 2015

TNZ002-004-019-021-049-052-054-088>092-011700-
WEST TENNESSEE

CITY           SKY/WX    TMP DP  RH WIND       PRES   REMARKS
MEMPHIS INTL   CLOUDY    81  72  74 W9        30.03R
NWS MEMPHIS      N/A     80 N/A N/A MISG        N/A
JACKSON        CLOUDY    80  72  76 W12       30.01R
DYERSBURG        N/A    N/A N/A N/A MISG        N/A
PARIS          CLOUDY    66  66 100 N5        30.04R
LEXINGTON      PTSUNNY   77  72  83 SW8       29.98R
$$

TNZ008-025-027-028-033-062-065-066-011700-
NORTH MIDDLE TENNESSEE

CITY           SKY/WX    TMP DP  RH WIND       PRES   REMARKS
NASHVILLE      LGT RAIN  76  74  93 W3        30.00S
CLARKSVILLE    CLOUDY    76  71  85 W7        30.00R
COOKEVILLE     PTSUNNY   79  73  83 SW6       30.02R
CROSSVILLE     CLOUDY    74  67  78 VRB7      30.06R
$$

TNZ061-075-076-078-094-096-097-011700-
SOUTH MIDDLE TENNESSEE

CITY           SKY/WX    TMP DP  RH WIND       PRES   REMARKS
FAYETTEVILLE   CLOUDY    73  72  94 SW8       30.04S
TULLAHOMA      MOSUNNY   75  70  83 SW7       30.05S
WINCHESTER     PTSUNNY   75  72  88 SW5       30.04S
SHELBYVILLE    PTSUNNY   79  73  83 S6        30.03R
$$

TNZ017-018-042-046-047-011700-
NORTHEAST TENNESSEE

CITY           SKY/WX    TMP DP  RH WIND       PRES   REMARKS
TRI CITIES     MOSUNNY   76  67  73 SW7       30.03F
ELIZABETHTON   PTSUNNY   75  64  69 SW5       30.03F
$$

TNZ012-013-036-069-073-074-011700-
CENTRAL EAST TENNESSEE

CITY           SKY/WX    TMP DP  RH WIND       PRES   REMARKS
KNOXVILLE      CLOUDY    78  69  73 S9        30.02R
OAK RIDGE      CLOUDY    76  69  79 S8        30.02R
GATLINBURG     MOSUNNY   79  66  65 SW6       30.01R
$$

TNZ083-085-099-011700-
SOUTHEAST TENNESSEE

CITY           SKY/WX    TMP DP  RH WIND       PRES   REMARKS
CHATTANOOGA    CLOUDY    80  69  69 S7        30.03S
$$

SKY/WX REPORTED AS FAIR MEANS FEW OR NO CLOUDS BELOW
12 THOUSAND FEET.



USA.gov is the U.S. government's official web portal to all federal, state and local government web resources and services.